Weather History for Agadir Al Massira, Morocco

Change the Weather History Date:

Thursday, February 21, 2013

  Actual Average Record
Temperature  
Mean Temperature 60 °F -  
Max Temperature 70 °F - - ()
Min Temperature 50 °F - - ()
Degree Days  
Heating Degree Days 5    
Growing Degree Days 10 (Base 50)    
Moisture  
Dew Point 50 °F    
Average Humidity 73    
Maximum Humidity 94    
Minimum Humidity 38    
Precipitation  
Precipitation 0.00 in - - ()
Sea Level Pressure  
Sea Level Pressure 30.10 in    
Wind  
Wind Speed 5 mph ()    
Max Wind Speed 15 mph    
Max Gust Speed -    
Visibility 6.1 miles    
Events      
T = Trace of Precipitation, MM = Missing Value Source: Averaged Metar Reports

Daily Weather History Graph

Daily Weather History Graph

Search for Another Location

Airport:

Trip Planner

Search our weather history database for the weather conditions in past years. The results will help you decide how hot, cold, wet, or windy it might be!

Date:

Astronomy

Feb. 21, 2013 Rise Set
Actual Time 7:12 AM WET 6:30 PM WET
Civil Twilight 6:47 AM WET 6:55 PM WET
Nautical Twilight 6:19 AM WET 7:23 PM WET
Astronomical Twilight 5:51 AM WET 7:50 PM WET
Moon 2:44 PM WET (2/21) 3:55 AM WET (2/21)
Length of Visible Light 12h 07m
Length of Day
11h 18m
Waxing Gibbous, 82% of the Moon is Illuminated
Feb 21
Waxing Gibbous
Feb 25
Full
Mar 4
Last Quarter
Mar 11
New
Mar 19
First Quarter

Hourly Weather History & Observations

Time (WET) Temp. Dew Point Humidity Pressure Visibility Wind Dir Wind Speed Gust Speed Precip Events Conditions
12:00 AM 51 °F 47 °F 83% 30.09 in 6 mi Calm Calm - -   Scattered Clouds
12:00 AM 50.0 °F 48.2 °F 94% 30.06 in 6.2 mi Calm Calm - N/A   Partly Cloudy
2:00 AM 50.0 °F 46.4 °F 87% 30.09 in 6.2 mi ENE 5.8 mph - N/A   Partly Cloudy
3:00 AM 50 °F 48 °F 91% 30.10 in 6 mi East 4.6 mph - -   Mostly Cloudy
3:00 AM 50.0 °F 48.2 °F 94% 30.09 in 6.2 mi ENE 4.6 mph - N/A   Scattered Clouds
4:00 AM 50.0 °F 48.2 °F 94% 30.09 in 6.2 mi East 4.6 mph - N/A   Scattered Clouds
6:00 AM 54 °F 50 °F 82% 30.10 in 6 mi ENE 5.8 mph - -  
6:00 AM 53.6 °F 50.0 °F 88% 30.09 in 6.2 mi ENE 5.8 mph - N/A   Scattered Clouds
7:00 AM 50.0 °F 46.4 °F 87% 30.09 in 6.2 mi East 4.6 mph - N/A   Scattered Clouds
8:00 AM 51.8 °F 48.2 °F 88% 30.12 in 6.2 mi East 4.6 mph - N/A   Scattered Clouds
9:00 AM 58 °F 51 °F 71% 30.15 in 6 mi East 5.8 mph - -  
9:00 AM 59.0 °F 51.8 °F 77% 30.15 in 6.2 mi East 5.8 mph - N/A   Unknown
10:00 AM 59.0 °F 51.8 °F 77% 30.15 in 6.2 mi ENE 5.8 mph - N/A   Partly Cloudy
12:00 PM 66 °F 47 °F 39% 30.15 in 6 mi ENE 2.3 mph - -   Scattered Clouds
12:00 PM 66.2 °F 48.2 °F 52% 30.15 in 6.2 mi ESE 3.5 mph - N/A   Partly Cloudy
1:00 PM 68.0 °F 48.2 °F 49% 30.12 in 6.2 mi Calm Calm - N/A   Partly Cloudy
2:00 PM 69.8 °F 46.4 °F 43% 30.09 in 6.2 mi WSW 3.5 mph - N/A   Partly Cloudy
3:00 PM 68 °F 48 °F 38% 30.09 in 6 mi West 15.0 mph - -   Scattered Clouds
3:00 PM 68.0 °F 48.2 °F 49% 30.06 in 6.2 mi West 15.0 mph - N/A   Partly Cloudy
4:00 PM 68.0 °F 50.0 °F 52% 30.06 in 6.2 mi West 13.8 mph - N/A   Partly Cloudy
5:00 PM 66.2 °F 51.8 °F 60% 30.06 in 6.2 mi West 12.7 mph - N/A   Partly Cloudy
6:00 PM 63 °F 53 °F 60% 30.09 in 6 mi West 15.0 mph - -   Scattered Clouds
6:00 PM 62.6 °F 51.8 °F 68% 30.06 in 6.2 mi West 15.0 mph - N/A   Partly Cloudy
7:00 PM 60.8 °F 51.8 °F 72% 30.06 in 6.2 mi WSW 8.1 mph - N/A   Partly Cloudy
8:00 PM 59.0 °F 53.6 °F 82% 30.09 in 6.2 mi SW 6.9 mph - N/A   Partly Cloudy
9:00 PM 57 °F 53 °F 83% 30.12 in 6 mi SSW 5.8 mph - -   Scattered Clouds
9:00 PM 57.2 °F 53.6 °F 88% 30.09 in 6.2 mi SSW 5.8 mph - N/A   Partly Cloudy
10:00 PM 57.2 °F 53.6 °F 88% 30.12 in - SSW 4.6 mph - N/A   Unknown
11:00 PM 57.2 °F 53.6 °F 88% 30.12 in - South 5.8 mph - N/A   Unknown